Regional Weather Roundup
Issued by NWS

Home | Current Version | Previous Version | Graphics & Text | Print | Product List | Glossary On
Versions: 1 2 3 4 5 6 7 8 9 10 11 12 13 14 15 16 17 18 19 20 21 22 23 24 25 26 27
000
ASUS45 KSLC 232110
RWRUT

UTAH REGIONAL WEATHER ROUNDUP
NATIONAL WEATHER SERVICE SALT LAKE CITY UT
300 PM MDT WED APR 23 2014

UTZ001>011-023>025-232200-

NORTHERN UTAH

CITY           SKY/WX    TMP DP  RH WIND       PRES   REMARKS
HILL AFB       MOSUNNY   48  21  35 VRB6      30.04S
LOGAN          PTSUNNY   50  24  36 NW17G24   30.01S
OGDEN          MOSUNNY   48  21  34 VRB3      30.04R
PROVO AIRPORT  MOSUNNY   52  16  24 NW14      30.05R
SALT LAKE CITY MOSUNNY   51  21  30 N7        30.05S
VERNAL         CLOUDY    52  22  30 N7        29.90S
WENDOVER       CLOUDY    54  18  24 NW13      30.03S
HEBER CITY     MOSUNNY   46  18  31 NE14G20   30.01S
WEST JORDAN    SUNNY     48  23  37 NW12      30.06S

$$

UTZ012>022-026-027-232200-

SOUTHERN UTAH

CITY           SKY/WX    TMP DP  RH WIND       PRES   REMARKS
BRYCE CANYON   SUNNY     47  13  25 NW14G21   30.01R
CEDAR CITY     SUNNY     54  10  17 NW14G20   30.00R
MILFORD        SUNNY     55  14  19 N10G25    30.01S
MOAB/CYNLANDS  SUNNY     57   7  13 W21G36    29.90S
PRICE          MOSUNNY   52   3  13 N14G25    29.95S
ST GEORGE      PTCLDY    70  19  14 NW13      29.93F

$$

REGIONAL REPORTS     COLORADO/ARIZONA

CITY           SKY/WX    TMP DP  RH WIND       PRES   REMARKS
CRAIG, CO      CLOUDY    46  26  45 W10       29.91R
GRAND JUNCTION CLOUDY    55  14  19 W14G23    29.87R
RIFLE          CLOUDY    56  20  24 NW13G26   29.83R
MONTROSE       CLOUDY    56  17  21 NW21G28   29.86R
CORTEZ         SUNNY     59   9  13 W16G23    29.88R
PAGE, AZ       MOSUNNY   65  15  14 N10       29.91S
GRAND CANYON   SUNNY     57   9  14 W10G23    30.00R
KINGMAN        SUNNY     71   6   8 N17       29.95S
FLAGSTAFF      MOSUNNY   58   7  13 NW9G23    29.98S

$$

REGIONAL REPORTS    NEVADA/IDAHO/WYOMING

CITY           SKY/WX    TMP DP  RH WIND       PRES   REMARKS
LAS VEGAS, NV  SUNNY     72  12  10 CALM      29.89F
ELY            SUNNY     50  13  22 N7        30.04S
ELKO           PTSUNNY   47  21  35 W14G22    30.05S
POCATELLO, ID  PTSUNNY   50  21  32 W28G35    29.99S
BURLEY         PTSUNNY   47  27  45 W15G25    30.01S
EVANSTON, WY   MOSUNNY   40  16  37 W23G36    30.00S WCI  30
ROCK SPRINGS   PTSUNNY   45   6  20 W25G39    29.93R

$$



USA.gov is the U.S. government's official web portal to all federal, state and local government web resources and services.